KQ4KX Weather Reports


time (UTC)temp
C
wind
direction
speed
KPH
gust
KPH
rain 1hr
cm
rain 24hr
cm
rain mn
cm
humidity
%
barometer
mb
20260507144834 28 249 9.7 30.6 0.00 0.00 0.00 63 1016.7
20260507142704 28 235 8.0 20.9 0.00 0.00 0.00 65 1016.6
20260507142134 27 235 8.0 20.9 0.00 0.00 0.00 67 1016.6
20260507141634 27 234 8.0 17.7 0.00 0.00 0.00 68 1016.6
20260507140104 27 216 6.4 20.9 0.00 0.00 0.00 67 1016.7
20260507135604 27 227 4.8 12.9 0.00 0.00 0.00 68 1016.7
20260507135034 26 217 4.8 9.7 0.00 0.00 0.00 73 1016.8
20260507134109 26 205 4.8 14.5 0.00 0.00 0.00 75 1016.8
20260507133934 26 205 4.8 14.5 0.00 0.00 0.00 75 1016.8
20260507133434 26 212 4.8 14.5 0.00 0.00 0.00 74 1016.8
20260507131905 25 194 4.8 11.3 0.00 0.00 0.00 75 1016.6
20260507131334 25 193 4.8 11.3 0.00 0.00 0.00 76 1016.5
20260507130834 25 203 4.8 11.3 0.00 0.00 0.00 78 1016.5
20260507125204 24 194 3.2 9.7 0.00 0.00 0.00 80 1016.3
20260507124637 23 181 4.8 11.3 0.00 0.00 0.00 81 1016.4
20260507124134 23 181 4.8 11.3 0.00 0.00 0.00 82 1016.4
20260507120934 22 182 3.2 9.7 0.00 0.00 0.00 87 1016.3
20260507120434 22 190 3.2 8.0 0.00 0.00 0.00 88 1016.4
20260507114906 22 188 3.2 9.7 0.00 0.00 0.00 88 1016.1
20260507114334 22 184 3.2 8.0 0.00 0.00 0.00 88 1016.2
20260507113834 22 182 1.6 8.0 0.00 0.00 0.00 88 1016.1
20260507112204 22 182 3.2 8.0 0.00 0.00 0.00 88 1016.1
20260507111705 22 186 1.6 6.4 0.00 0.00 0.00 88 1016.0
20260507111134 22 189 1.6 6.4 0.00 0.00 0.00 88 1015.8
20260507110634 22 187 1.6 6.4 0.00 0.00 0.00 87 1015.9
20260507110134 22 181 1.6 9.7 0.00 0.00 0.00 87 1015.7
20260507105635 22 181 3.2 9.7 0.00 0.00 0.00 87 1016.0
20260507105104 22 181 3.2 9.7 0.00 0.00 0.00 88 1015.9
20260507104034 21 180 1.6 8.0 0.00 0.00 0.00 90 1015.7
20260507103534 21 178 1.6 4.8 0.00 0.00 0.00 91 1015.8
20260507103034 21 169 0.0 4.8 0.00 0.00 0.00 91 1015.6
20260507101934 20 215 0.0 1.6 0.00 0.00 0.00 91 1015.7
20260507101404 21 215 0.0 1.6 0.00 0.00 0.00 90 1015.5
20260507100456 21 210 0.0 3.2 0.00 0.00 0.00 91 1015.4
20260507100335 21 213 0.0 3.2 0.00 0.00 0.00 90 1015.5
20260507095806 21 210 0.0 3.2 0.00 0.00 0.00 91 1015.4
20260507094704 21 191 0.0 1.6 0.00 0.00 0.00 90 1015.2
20260507094204 21 221 0.0 1.6 0.00 0.00 0.00 91 1015.1
20260507093834 21 246 0.0 1.6 0.00 0.00 0.00 93 1015.0
20260507093704 21 227 0.0 1.6 0.00 0.00 0.00 92 1015.0
20260507093207 21 246 0.0 1.6 0.00 0.00 0.00 93 1015.0
20260507092634 20 246 0.0 1.6 0.00 0.00 0.00 93 1014.9
20260507092104 21 246 0.0 1.6 0.00 0.00 0.00 93 1015.0
20260507090743 21 0 0.0 0.0 0.00 0.00 0.00 92 1015.2
20260507090534 21 0 0.0 0.0 0.00 0.00 0.00 92 1015.2
20260507084404 21 0 0.0 0.0 0.00 0.00 0.00 90 1015.2
20260507083404 22 246 0.0 1.6 0.00 0.00 0.00 90 1015.1
20260507082834 22 246 0.0 1.6 0.00 0.00 0.00 89 1014.9
20260507082306 22 246 0.0 1.6 0.00 0.00 0.00 89 1015.0
20260507081234 22 250 1.6 4.8 0.00 0.00 0.00 88 1014.8
20260507080734 22 248 1.6 6.4 0.00 0.00 0.00 88 1014.9
20260507075704 22 242 1.6 6.4 0.00 0.00 0.00 88 1014.9
20260507075204 22 238 1.6 4.8 0.00 0.00 0.00 88 1014.8
20260507074634 22 221 1.6 3.2 0.00 0.00 0.00 87 1014.8
20260507074134 22 227 1.6 3.2 0.00 0.00 0.00 87 1014.9
20260507073634 22 243 1.6 3.2 0.00 0.00 0.00 86 1015.0
20260507073134 22 243 0.0 3.2 0.00 0.00 0.00 86 1015.2
20260507072634 22 244 1.6 4.8 0.00 0.00 0.00 86 1015.1
20260507072134 22 242 3.2 6.4 0.00 0.00 0.00 86 1015.2
20260507071634 23 240 3.2 6.4 0.00 0.00 0.00 85 1015.2
20260507070634 23 239 3.2 6.4 0.00 0.00 0.00 85 1015.1
20260507065034 23 237 1.6 4.8 0.00 0.00 0.00 84 1015.2
20260507064534 23 231 1.6 3.2 0.00 0.00 0.00 84 1015.2
20260507063504 23 222 1.6 4.8 0.00 0.00 0.00 83 1015.3
20260507062434 23 242 3.2 4.8 0.00 0.00 0.00 82 1015.5
20260507061935 23 237 3.2 6.4 0.00 0.00 0.00 82 1015.4
20260507061404 23 229 1.6 6.4 0.00 0.00 0.00 81 1015.5
20260507060834 23 234 1.6 4.8 0.00 0.00 0.00 80 1015.8
20260507060334 23 241 3.2 9.7 0.00 0.00 0.00 79 1015.7
20260507055334 23 236 3.2 6.4 0.00 0.00 0.00 77 1015.6
20260507055005 23 206 1.6 4.8 0.00 0.00 0.00 76 1015.7
20260507054808 23 206 1.6 4.8 0.00 0.00 0.00 76 1015.7
20260507052734 23 196 1.6 4.8 0.00 0.00 0.00 74 1015.9
20260507052204 24 198 1.6 6.4 0.00 0.00 0.00 73 1016.0
20260507050604 24 202 1.6 4.8 0.00 0.00 0.00 75 1016.2
20260507045035 23 226 0.0 4.8 0.00 0.00 0.00 79 1016.4
20260507042434 23 221 1.6 1.6 0.00 0.00 0.00 82 1016.5
20260507041904 24 221 0.0 1.6 0.00 0.00 0.00 82 1016.5
20260507040334 25 216 0.0 1.6 0.00 0.00 0.00 81 1016.4
20260507035834 25 208 0.0 1.6 0.00 0.00 0.00 80 1016.5
20260507035334 25 207 0.0 1.6 0.00 0.00 0.00 80 1016.5
20260507033234 25 184 1.6 4.8 0.00 0.00 0.00 78 1016.4
20260507032704 25 194 1.6 8.0 0.00 0.00 0.00 78 1016.3
20260507032134 25 217 1.6 8.0 0.00 0.00 0.00 77 1016.2
20260507031634 25 234 3.2 11.3 0.00 0.00 0.00 77 1016.1
20260507031104 25 244 4.8 11.3 0.00 0.00 0.00 76 1016.1
20260507030604 25 244 4.8 11.3 0.00 0.00 0.00 75 1016.0
20260507030034 26 239 6.4 16.1 0.00 0.00 0.00 75 1015.8
20260507024934 26 236 8.0 16.1 0.00 0.00 0.00 74 1015.7
20260507024404 26 234 6.4 16.1 0.00 0.00 0.00 73 1015.7
20260507022234 26 246 4.8 11.3 0.00 0.00 0.00 74 1016.0
20260507021734 26 228 1.6 8.0 0.00 0.00 0.00 75 1015.9
20260507021234 27 198 3.2 9.7 0.00 0.00 0.00 74 1015.7
20260507020204 27 183 3.2 9.7 0.00 0.00 0.00 72 1015.7
20260507015634 27 124 3.2 9.7 0.00 0.00 0.00 68 1015.8
20260507015134 27 100 3.2 9.7 0.00 0.00 0.00 65 1015.7
20260507014104 27 153 1.6 9.7 0.00 0.00 0.00 64 1015.9
20260507013534 28 168 3.2 9.7 0.00 0.00 0.00 63 1015.9
20260507012007 28 136 4.8 14.5 0.00 0.00 0.00 63 1015.8
20260507010904 28 105 6.4 19.3 0.00 0.00 0.00 63 1015.7
20260507010333 28 114 4.8 16.1 0.00 0.00 0.00 63 1015.7
20260507005835 28 228 3.2 12.9 0.00 0.00 0.00 60 1015.8
20260507005306 28 235 4.8 12.9 0.00 0.00 0.00 60 1015.7
20260507004804 28 106 8.0 17.7 0.00 0.00 0.00 62 1015.5
20260507004234 28 100 16.1 27.4 0.00 0.00 0.00 62 1015.2
20260507003735 28 99 14.5 27.4 0.00 0.00 0.00 62 1015.1
20260507003234 28 101 8.0 27.4 0.00 0.00 0.00 62 1015.1
20260507002204 29 104 4.8 9.7 0.00 0.00 0.00 59 1014.9
20260507001634 30 105 3.2 9.7 0.00 0.00 0.00 58 1015.0
20260507001104 30 123 0.0 4.8 0.00 0.00 0.00 55 1014.8
20260507000604 30 154 0.0 1.6 0.00 0.00 0.00 54 1014.8
20260507000034 31 154 0.0 1.6 0.00 0.00 0.00 51 1014.7
20260506234933 31 170 0.0 3.2 0.00 0.00 0.00 49 1014.7
20260506234433 31 165 0.0 3.2 0.00 0.00 0.00 51 1014.6
20260506233904 32 153 1.6 3.2 0.00 0.00 0.00 48 1014.6
20260506233334 32 144 0.0 3.2 0.00 0.00 0.00 49 1014.6
20260506232833 32 126 0.0 1.6 0.00 0.00 0.00 49 1014.6
20260506232306 32 130 0.0 3.2 0.00 0.00 0.00 49 1014.6
20260506231305 32 112 1.6 3.2 0.00 0.00 0.00 47 1014.7
20260506230938 32 110 1.6 4.8 0.00 0.00 0.00 49 1014.7
20260506230806 32 110 1.6 4.8 0.00 0.00 0.00 49 1014.7
20260506230305 32 110 3.2 4.8 0.00 0.00 0.00 52 1014.6
20260506225734 32 105 3.2 6.4 0.00 0.00 0.00 50 1014.7
20260506225204 32 106 3.2 6.4 0.00 0.00 0.00 53 1014.6
20260506224704 32 107 3.2 4.8 0.00 0.00 0.00 52 1014.8
20260506224133 32 109 3.2 4.8 0.00 0.00 0.00 45 1014.8
20260506223634 32 111 3.2 4.8 0.00 0.00 0.00 49 1014.8
20260506223104 32 111 3.2 6.4 0.00 0.00 0.00 49 1014.7
20260506221434 32 103 4.8 9.7 0.00 0.00 0.00 49 1014.8
20260506220934 32 104 4.8 9.7 0.00 0.00 0.00 46 1014.8
20260506220434 32 105 4.8 9.7 0.00 0.00 0.00 46 1014.8
20260506215904 33 104 4.8 9.7 0.00 0.00 0.00 47 1014.9
20260506215334 33 105 4.8 11.3 0.00 0.00 0.00 47 1015.0
20260506214305 33 90 1.6 6.4 0.00 0.00 0.00 47 1015.1
20260506212734 33 104 4.8 9.7 0.00 0.00 0.00 50 1015.0
20260506212204 33 103 4.8 11.3 0.00 0.00 0.00 45 1015.0
20260506211636 33 97 4.8 11.3 0.00 0.00 0.00 48 1015.0
20260506211134 33 97 6.4 12.9 0.00 0.00 0.00 46 1014.9
20260506210604 33 101 6.4 12.9 0.00 0.00 0.00 46 1014.9
20260506210103 33 99 4.8 11.3 0.00 0.00 0.00 47 1015.0
20260506205534 33 105 6.4 12.9 0.00 0.00 0.00 44 1014.8
20260506204433 34 101 8.0 14.5 0.00 0.00 0.00 44 1014.8
20260506203904 34 102 6.4 14.5 0.00 0.00 0.00 46 1015.0
20260506203404 34 102 4.8 11.3 0.00 0.00 0.00 46 1015.0
20260506202834 35 100 4.8 11.3 0.00 0.00 0.00 45 1015.1
20260506201234 35 117 3.2 8.0 0.00 0.00 0.00 44 1015.1
20260506200204 34 97 6.4 11.3 0.00 0.00 0.00 45 1015.2
20260506195704 35 95 6.4 11.3 0.00 0.00 0.00 47 1015.1
20260506195133 35 92 3.2 9.7 0.00 0.00 0.00 46 1015.1
20260506194634 34 116 3.2 12.9 0.00 0.00 0.00 45 1015.2
20260506194103 34 110 6.4 12.9 0.00 0.00 0.00 45 1015.3
20260506193034 34 98 6.4 14.5 0.00 0.00 0.00 50 1015.4
20260506192534 34 102 4.8 14.5 0.00 0.00 0.00 48 1015.5
20260506192034 34 102 6.4 14.5 0.00 0.00 0.00 48 1015.6
20260506191534 34 102 8.0 14.5 0.00 0.00 0.00 49 1015.7
20260506185934 34 94 8.0 14.5 0.00 0.00 0.00 47 1016.0
20260506185433 34 99 6.4 14.5 0.00 0.00 0.00 50 1016.2
20260506184904 33 99 8.0 12.9 0.00 0.00 0.00 49 1016.2
20260506184404 33 96 8.0 12.9 0.00 0.00 0.00 50 1016.2
20260506181233 33 98 8.0 16.1 0.00 0.00 0.00 51 1016.6
20260506180204 32 101 6.4 14.5 0.00 0.00 0.00 53 1016.6
20260506175704 32 103 8.0 14.5 0.00 0.00 0.00 52 1016.7
20260506174603 32 98 8.0 14.5 0.00 0.00 0.00 54 1016.9
20260506174103 32 99 8.0 12.9 0.00 0.00 0.00 53 1017.0
20260506173533 32 100 8.0 14.5 0.00 0.00 0.00 55 1017.0
20260506173033 32 99 6.4 14.5 0.00 0.00 0.00 54 1017.0
20260506172534 32 101 6.4 12.9 0.00 0.00 0.00 55 1017.1
20260506171434 32 106 6.4 12.9 0.00 0.00 0.00 53 1017.2
20260506170904 32 101 6.4 12.9 0.00 0.00 0.00 56 1017.2
20260506170334 32 100 8.0 12.9 0.00 0.00 0.00 56 1017.3
20260506164734 32 103 8.0 14.5 0.00 0.00 0.00 57 1017.4
20260506164204 32 106 6.4 14.5 0.00 0.00 0.00 56 1017.4
20260506163704 32 110 4.8 14.5 0.00 0.00 0.00 56 1017.4
20260506162703 32 97 8.0 12.9 0.00 0.00 0.00 56 1017.4
20260506162134 32 107 4.8 12.9 0.00 0.00 0.00 56 1017.4
20260506161634 32 120 4.8 11.3 0.00 0.00 0.00 57 1017.6
20260506161104 32 114 6.4 16.1 0.00 0.00 0.00 56 1017.5
20260506160603 31 113 6.4 16.1 0.00 0.00 0.00 54 1017.4
20260506160034 32 106 4.8 12.9 0.00 0.00 0.00 56 1017.5
20260506155534 31 104 4.8 12.9 0.00 0.00 0.00 57 1017.4
20260506155004 31 105 4.8 11.3 0.00 0.00 0.00 58 1017.4
20260506153933 31 112 4.8 11.3 0.00 0.00 0.00 61 1017.6
20260506153549 31 99 4.8 16.1 0.00 0.00 0.00 63 1017.6
20260506153433 31 99 4.8 16.1 0.00 0.00 0.00 63 1017.6
20260506152933 30 104 4.8 16.1 0.00 0.00 0.00 64 1017.6
20260506152403 30 109 4.8 12.9 0.00 0.00 0.00 65 1017.7
20260506151834 29 131 3.2 12.9 0.00 0.00 0.00 67 1017.7
20260506150235 28 139 3.2 12.9 0.00 0.00 0.00 71 1017.4
20260506145734 28 119 3.2 11.3 0.00 0.00 0.00 73 1017.5
20260506145234 28 123 3.2 11.3 0.00 0.00 0.00 73 1017.5